| time (UTC) | temp F | wind direction | speed MPH | gust MPH | rain 1hr in | rain 24hr in | rain mn in | humidity % | barometer mb |
| 20260509082021 | 49 | 286 | 1.0 | 2.0 | 0.00 | 0.00 | 0.00 | 88 | 1022.6 |
| 20260509081549 | 49 | 318 | 0.0 | 1.0 | 0.00 | 0.00 | 0.00 | 89 | 1022.5 |
| 20260509081025 | 49 | 318 | 0.0 | 1.0 | 0.00 | 0.00 | 0.00 | 88 | 1022.5 |
| 20260509080522 | 49 | 0 | 0.0 | 1.0 | 0.00 | 0.00 | 0.00 | 88 | 1022.5 |
| 20260509080041 | 49 | 0 | 0.0 | 1.0 | 0.00 | 0.00 | 0.00 | 88 | 1022.6 |
| 20260509075523 | 49 | 317 | 1.0 | 1.0 | 0.00 | 0.00 | 0.00 | 88 | 1022.5 |
| 20260509075021 | 50 | 318 | 0.0 | 1.0 | 0.00 | 0.00 | 0.00 | 87 | 1022.5 |
| 20260509074542 | 50 | 0 | 0.0 | 1.0 | 0.00 | 0.00 | 0.00 | 87 | 1022.5 |
| 20260509074020 | 50 | 314 | 0.0 | 1.0 | 0.00 | 0.00 | 0.00 | 85 | 1022.4 |
| 20260509073521 | 51 | 314 | 1.0 | 1.0 | 0.00 | 0.00 | 0.00 | 86 | 1022.4 |
| 20260509073045 | 51 | 311 | 1.0 | 1.0 | 0.00 | 0.00 | 0.00 | 85 | 1022.4 |
| 20260509072521 | 51 | 298 | 0.0 | 1.0 | 0.00 | 0.00 | 0.00 | 84 | 1022.4 |
| 20260509072020 | 52 | 0 | 0.0 | 2.0 | 0.00 | 0.00 | 0.00 | 84 | 1022.4 |
| 20260509071546 | 52 | 17 | 1.0 | 2.0 | 0.00 | 0.00 | 0.00 | 84 | 1022.4 |
| 20260509071020 | 52 | 39 | 1.0 | 2.0 | 0.00 | 0.00 | 0.00 | 83 | 1022.5 |
| 20260509070526 | 53 | 30 | 1.0 | 2.0 | 0.00 | 0.00 | 0.00 | 82 | 1022.5 |
| 20260509070051 | 54 | 31 | 1.0 | 2.0 | 0.00 | 0.00 | 0.00 | 81 | 1022.4 |
| 20260509065522 | 54 | 0 | 0.0 | 2.0 | 0.00 | 0.00 | 0.00 | 80 | 1022.4 |
| 20260509065023 | 54 | 96 | 1.0 | 2.0 | 0.00 | 0.00 | 0.00 | 81 | 1022.4 |
| 20260509064542 | 54 | 120 | 0.0 | 2.0 | 0.00 | 0.00 | 0.00 | 80 | 1022.4 |
| 20260509064023 | 54 | 125 | 1.0 | 2.0 | 0.00 | 0.00 | 0.00 | 79 | 1022.5 |
| 20260509063521 | 54 | 108 | 0.0 | 2.0 | 0.00 | 0.00 | 0.00 | 80 | 1022.4 |
| 20260509063059 | 54 | 136 | 1.0 | 2.0 | 0.00 | 0.00 | 0.00 | 79 | 1022.4 |
| 20260509062521 | 54 | 166 | 1.0 | 3.0 | 0.00 | 0.00 | 0.00 | 78 | 1022.4 |
| 20260509062021 | 54 | 167 | 1.0 | 3.0 | 0.00 | 0.00 | 0.00 | 79 | 1022.4 |
| 20260509061606 | 54 | 161 | 1.0 | 2.0 | 0.00 | 0.00 | 0.00 | 78 | 1022.4 |
| 20260509061024 | 55 | 179 | 1.0 | 3.0 | 0.00 | 0.00 | 0.00 | 78 | 1022.4 |
| 20260509060521 | 55 | 153 | 1.0 | 3.0 | 0.00 | 0.00 | 0.00 | 78 | 1022.5 |
| 20260509060052 | 55 | 130 | 2.0 | 3.0 | 0.00 | 0.00 | 0.00 | 78 | 1022.4 |
| 20260509055522 | 55 | 144 | 1.0 | 4.0 | 0.00 | 0.00 | 0.00 | 78 | 1022.4 |
| 20260509055020 | 55 | 130 | 2.0 | 5.0 | 0.00 | 0.00 | 0.00 | 77 | 1022.3 |
| 20260509054537 | 55 | 129 | 2.0 | 6.0 | 0.00 | 0.00 | 0.00 | 78 | 1022.3 |
| 20260509054021 | 55 | 160 | 3.0 | 6.0 | 0.00 | 0.00 | 0.00 | 78 | 1022.3 |
| 20260509053523 | 55 | 136 | 2.0 | 4.0 | 0.00 | 0.00 | 0.00 | 78 | 1022.4 |
| 20260509053043 | 55 | 140 | 2.0 | 4.0 | 0.00 | 0.00 | 0.00 | 78 | 1022.2 |
| 20260509052521 | 55 | 155 | 1.0 | 4.0 | 0.00 | 0.00 | 0.00 | 78 | 1022.3 |
| 20260509052021 | 55 | 105 | 2.0 | 6.0 | 0.00 | 0.00 | 0.00 | 77 | 1022.3 |
| 20260509051542 | 55 | 143 | 2.0 | 7.0 | 0.00 | 0.00 | 0.00 | 77 | 1022.4 |
| 20260509051021 | 55 | 137 | 4.0 | 7.0 | 0.00 | 0.00 | 0.00 | 76 | 1022.3 |
| 20260509050523 | 55 | 150 | 4.0 | 6.0 | 0.00 | 0.00 | 0.00 | 76 | 1022.2 |
| 20260509050039 | 55 | 126 | 3.0 | 6.0 | 0.00 | 0.00 | 0.00 | 77 | 1022.3 |
| 20260509045520 | 55 | 150 | 3.0 | 6.0 | 0.00 | 0.00 | 0.00 | 78 | 1022.4 |
| 20260509045020 | 55 | 134 | 3.0 | 8.0 | 0.00 | 0.00 | 0.00 | 76 | 1022.4 |
| 20260509044537 | 55 | 135 | 4.0 | 8.0 | 0.00 | 0.00 | 0.00 | 76 | 1022.3 |
| 20260509044020 | 55 | 119 | 5.0 | 8.0 | 0.00 | 0.00 | 0.00 | 76 | 1022.2 |
| 20260509043524 | 55 | 156 | 4.0 | 8.0 | 0.00 | 0.00 | 0.00 | 76 | 1022.3 |
| 20260509043042 | 55 | 141 | 4.0 | 8.0 | 0.00 | 0.00 | 0.00 | 76 | 1022.2 |
| 20260509042523 | 55 | 129 | 4.0 | 8.0 | 0.00 | 0.00 | 0.00 | 76 | 1022.2 |
| 20260509042024 | 55 | 136 | 4.0 | 6.0 | 0.00 | 0.00 | 0.00 | 76 | 1022.1 |
| 20260509041542 | 55 | 165 | 4.0 | 8.0 | 0.00 | 0.00 | 0.00 | 76 | 1022.1 |
| 20260509041024 | 55 | 104 | 4.0 | 8.0 | 0.00 | 0.00 | 0.00 | 76 | 1022.1 |
| 20260509040523 | 55 | 137 | 4.0 | 7.0 | 0.00 | 0.00 | 0.00 | 76 | 1022.1 |
| 20260509040040 | 55 | 189 | 4.0 | 8.0 | 0.00 | 0.00 | 0.00 | 76 | 1022.1 |
| 20260509035522 | 55 | 146 | 4.0 | 8.0 | 0.00 | 0.00 | 0.00 | 75 | 1022.1 |
| 20260509035020 | 55 | 130 | 3.0 | 8.0 | 0.00 | 0.00 | 0.00 | 76 | 1022.0 |
| 20260509034538 | 55 | 146 | 3.0 | 8.0 | 0.00 | 0.00 | 0.00 | 75 | 1022.0 |
| 20260509034020 | 55 | 146 | 3.0 | 6.0 | 0.00 | 0.00 | 0.00 | 74 | 1021.9 |
| 20260509033523 | 55 | 133 | 3.0 | 5.0 | 0.00 | 0.00 | 0.00 | 75 | 1021.9 |
| 20260509033046 | 55 | 154 | 3.0 | 5.0 | 0.00 | 0.00 | 0.00 | 75 | 1021.9 |
| 20260509032520 | 55 | 131 | 3.0 | 6.0 | 0.00 | 0.00 | 0.00 | 74 | 1021.8 |
| 20260509032022 | 55 | 129 | 2.0 | 6.0 | 0.00 | 0.00 | 0.00 | 75 | 1021.7 |
| 20260509031546 | 55 | 139 | 4.0 | 6.0 | 0.00 | 0.00 | 0.00 | 75 | 1021.7 |
| 20260509031022 | 55 | 144 | 3.0 | 6.0 | 0.00 | 0.00 | 0.00 | 75 | 1021.7 |
| 20260509030524 | 55 | 129 | 3.0 | 7.0 | 0.00 | 0.00 | 0.00 | 75 | 1021.7 |
| 20260509030045 | 55 | 139 | 4.0 | 7.0 | 0.00 | 0.00 | 0.00 | 75 | 1021.7 |
| 20260509025521 | 55 | 140 | 2.0 | 6.0 | 0.00 | 0.00 | 0.00 | 75 | 1021.7 |
| 20260509025026 | 56 | 128 | 2.0 | 6.0 | 0.00 | 0.00 | 0.00 | 75 | 1021.7 |
| 20260509024541 | 56 | 198 | 3.0 | 6.0 | 0.00 | 0.00 | 0.00 | 75 | 1021.6 |
| 20260509024022 | 56 | 105 | 3.0 | 6.0 | 0.00 | 0.00 | 0.00 | 74 | 1021.6 |
| 20260509023522 | 56 | 217 | 3.0 | 6.0 | 0.00 | 0.00 | 0.00 | 73 | 1021.5 |
| 20260509023041 | 56 | 210 | 2.0 | 9.0 | 0.00 | 0.00 | 0.00 | 74 | 1021.6 |
| 20260509022525 | 57 | 142 | 3.0 | 9.0 | 0.00 | 0.00 | 0.00 | 74 | 1021.5 |
| 20260509022022 | 57 | 149 | 3.0 | 7.0 | 0.00 | 0.00 | 0.00 | 73 | 1021.5 |
| 20260509021547 | 58 | 129 | 3.0 | 8.0 | 0.00 | 0.00 | 0.00 | 70 | 1021.4 |
| 20260509021021 | 58 | 191 | 4.0 | 9.0 | 0.00 | 0.00 | 0.00 | 71 | 1021.5 |
| 20260509020521 | 58 | 117 | 4.0 | 10.0 | 0.00 | 0.00 | 0.00 | 69 | 1021.4 |
| 20260509020048 | 59 | 177 | 4.0 | 10.0 | 0.00 | 0.00 | 0.00 | 70 | 1021.4 |
| 20260509015523 | 59 | 231 | 4.0 | 8.0 | 0.00 | 0.00 | 0.00 | 70 | 1021.3 |
| 20260509015023 | 59 | 189 | 4.0 | 9.0 | 0.00 | 0.00 | 0.00 | 69 | 1021.4 |
| 20260509014548 | 59 | 155 | 4.0 | 9.0 | 0.00 | 0.00 | 0.00 | 70 | 1021.3 |
| 20260509014022 | 59 | 174 | 4.0 | 9.0 | 0.00 | 0.00 | 0.00 | 70 | 1021.3 |
| 20260509013522 | 58 | 231 | 4.0 | 9.0 | 0.00 | 0.00 | 0.00 | 71 | 1021.2 |
| 20260509013045 | 58 | 146 | 4.0 | 9.0 | 0.00 | 0.00 | 0.00 | 71 | 1021.2 |
| 20260509012522 | 58 | 125 | 3.0 | 9.0 | 0.00 | 0.00 | 0.00 | 72 | 1021.3 |
| 20260509012022 | 58 | 200 | 4.0 | 9.0 | 0.00 | 0.00 | 0.00 | 72 | 1021.4 |
| 20260509011542 | 58 | 139 | 5.0 | 10.0 | 0.00 | 0.00 | 0.00 | 70 | 1021.2 |
| 20260509011021 | 58 | 162 | 4.0 | 10.0 | 0.00 | 0.00 | 0.00 | 72 | 1021.3 |
| 20260509010522 | 58 | 149 | 4.0 | 10.0 | 0.00 | 0.00 | 0.00 | 72 | 1021.3 |
| 20260509010115 | 58 | 129 | 4.0 | 10.0 | 0.00 | 0.00 | 0.00 | 72 | 1021.3 |
| 20260509005525 | 58 | 226 | 4.0 | 10.0 | 0.00 | 0.00 | 0.00 | 72 | 1021.2 |
| 20260509005025 | 58 | 185 | 5.0 | 9.0 | 0.00 | 0.00 | 0.00 | 71 | 1021.3 |
| 20260509004538 | 59 | 117 | 4.0 | 9.0 | 0.00 | 0.00 | 0.00 | 71 | 1021.3 |
| 20260509004021 | 59 | 153 | 4.0 | 10.0 | 0.00 | 0.00 | 0.00 | 70 | 1021.3 |
| 20260509003522 | 59 | 166 | 4.0 | 10.0 | 0.00 | 0.00 | 0.00 | 69 | 1021.2 |
| 20260509003047 | 59 | 202 | 5.0 | 10.0 | 0.00 | 0.00 | 0.00 | 70 | 1021.2 |
| 20260509002521 | 59 | 130 | 4.0 | 8.0 | 0.00 | 0.00 | 0.00 | 71 | 1021.2 |
| 20260509002022 | 59 | 142 | 5.0 | 8.0 | 0.00 | 0.00 | 0.00 | 70 | 1021.2 |
| 20260509001544 | 59 | 102 | 5.0 | 9.0 | 0.00 | 0.00 | 0.00 | 69 | 1021.2 |
| 20260509001022 | 59 | 168 | 4.0 | 10.0 | 0.00 | 0.00 | 0.00 | 69 | 1021.1 |
| 20260509000521 | 59 | 175 | 5.0 | 10.0 | 0.00 | 0.00 | 0.00 | 69 | 1021.1 |
| 20260509000041 | 59 | 160 | 4.0 | 11.0 | 0.00 | 0.00 | 0.00 | 70 | 1021.2 |
| 20260508235522 | 59 | 139 | 5.0 | 11.0 | 0.00 | 0.00 | 0.00 | 70 | 1021.1 |
| 20260508235022 | 59 | 158 | 4.0 | 8.0 | 0.00 | 0.00 | 0.00 | 69 | 1021.2 |
| 20260508234544 | 59 | 188 | 5.0 | 8.0 | 0.00 | 0.00 | 0.00 | 69 | 1021.2 |
| 20260508234022 | 60 | 270 | 3.0 | 10.0 | 0.00 | 0.00 | 0.00 | 70 | 1021.1 |
| 20260508233522 | 60 | 146 | 4.0 | 10.0 | 0.00 | 0.00 | 0.00 | 70 | 1021.1 |
| 20260508233051 | 59 | 169 | 4.0 | 9.0 | 0.00 | 0.00 | 0.00 | 70 | 1021.1 |
| 20260508232525 | 59 | 177 | 4.0 | 9.0 | 0.00 | 0.00 | 0.00 | 71 | 1021.2 |
| 20260508232022 | 59 | 203 | 4.0 | 9.0 | 0.00 | 0.00 | 0.00 | 71 | 1021.1 |
| 20260508231537 | 59 | 148 | 4.0 | 8.0 | 0.00 | 0.00 | 0.00 | 71 | 1021.1 |
| 20260508231022 | 59 | 179 | 4.0 | 8.0 | 0.00 | 0.00 | 0.00 | 70 | 1021.1 |
| 20260508230521 | 59 | 184 | 4.0 | 8.0 | 0.00 | 0.00 | 0.00 | 71 | 1021.1 |
| 20260508230037 | 59 | 174 | 4.0 | 11.0 | 0.00 | 0.00 | 0.00 | 70 | 1021.1 |
| 20260508225521 | 59 | 163 | 4.0 | 11.0 | 0.00 | 0.00 | 0.00 | 70 | 1021.2 |
| 20260508225024 | 59 | 217 | 5.0 | 11.0 | 0.00 | 0.00 | 0.00 | 71 | 1021.1 |
| 20260508224544 | 58 | 129 | 5.0 | 13.0 | 0.00 | 0.00 | 0.00 | 71 | 1021.0 |
| 20260508224023 | 58 | 154 | 5.0 | 13.0 | 0.00 | 0.00 | 0.00 | 72 | 1021.2 |
| 20260508223523 | 58 | 146 | 6.0 | 13.0 | 0.00 | 0.00 | 0.00 | 70 | 1021.1 |
| 20260508223043 | 58 | 189 | 6.0 | 12.0 | 0.00 | 0.00 | 0.00 | 70 | 1021.1 |
| 20260508222522 | 58 | 141 | 5.0 | 12.0 | 0.00 | 0.00 | 0.00 | 72 | 1021.1 |
| 20260508222022 | 58 | 147 | 5.0 | 12.0 | 0.00 | 0.00 | 0.00 | 71 | 1021.3 |
| 20260508221541 | 58 | 206 | 5.0 | 12.0 | 0.00 | 0.00 | 0.00 | 72 | 1021.3 |
| 20260508221030 | 58 | 176 | 5.0 | 11.0 | 0.00 | 0.00 | 0.00 | 70 | 1021.3 |
| 20260508220522 | 58 | 84 | 5.0 | 10.0 | 0.00 | 0.00 | 0.00 | 72 | 1021.1 |
| 20260508220038 | 58 | 148 | 5.0 | 10.0 | 0.00 | 0.00 | 0.00 | 72 | 1021.1 |
| 20260508215521 | 58 | 133 | 6.0 | 10.0 | 0.00 | 0.00 | 0.00 | 72 | 1021.0 |
| 20260508215022 | 59 | 225 | 5.0 | 10.0 | 0.00 | 0.00 | 0.00 | 72 | 1021.0 |
| 20260508214537 | 59 | 119 | 5.0 | 11.0 | 0.00 | 0.00 | 0.00 | 71 | 1021.1 |
| 20260508214021 | 59 | 144 | 5.0 | 11.0 | 0.00 | 0.00 | 0.00 | 71 | 1021.1 |
| 20260508213521 | 59 | 231 | 5.0 | 10.0 | 0.00 | 0.00 | 0.00 | 71 | 1021.1 |
| 20260508213043 | 59 | 134 | 5.0 | 11.0 | 0.00 | 0.00 | 0.00 | 72 | 1021.1 |
| 20260508212524 | 59 | 211 | 5.0 | 12.0 | 0.00 | 0.00 | 0.00 | 72 | 1020.9 |
| 20260508212021 | 58 | 150 | 6.0 | 13.0 | 0.00 | 0.00 | 0.00 | 72 | 1021.1 |
| 20260508211543 | 58 | 180 | 6.0 | 13.0 | 0.00 | 0.00 | 0.00 | 72 | 1021.0 |
| 20260508211022 | 59 | 127 | 5.0 | 12.0 | 0.00 | 0.00 | 0.00 | 72 | 1020.9 |
| 20260508210522 | 59 | 155 | 5.0 | 11.0 | 0.00 | 0.00 | 0.00 | 71 | 1020.9 |
| 20260508210044 | 59 | 200 | 5.0 | 13.0 | 0.00 | 0.00 | 0.00 | 72 | 1020.9 |
| 20260508205524 | 59 | 196 | 6.0 | 13.0 | 0.00 | 0.00 | 0.00 | 72 | 1020.7 |
| 20260508205025 | 58 | 116 | 7.0 | 12.0 | 0.00 | 0.00 | 0.00 | 71 | 1020.6 |
| 20260508204541 | 58 | 173 | 6.0 | 12.0 | 0.00 | 0.00 | 0.00 | 71 | 1020.6 |
| 20260508204023 | 58 | 141 | 6.0 | 13.0 | 0.00 | 0.00 | 0.00 | 70 | 1020.5 |
| 20260508203526 | 58 | 218 | 6.0 | 13.0 | 0.00 | 0.00 | 0.00 | 71 | 1020.6 |
| 20260508203041 | 58 | 173 | 6.0 | 13.0 | 0.00 | 0.00 | 0.00 | 71 | 1020.6 |
| 20260508202522 | 58 | 168 | 6.0 | 13.0 | 0.00 | 0.00 | 0.00 | 71 | 1020.5 |
| 20260508202021 | 58 | 173 | 5.0 | 14.0 | 0.00 | 0.00 | 0.00 | 72 | 1020.5 |
| 20260508201557 | 58 | 181 | 6.0 | 14.0 | 0.00 | 0.00 | 0.00 | 72 | 1020.4 |
| 20260508201021 | 58 | 158 | 5.0 | 13.0 | 0.00 | 0.00 | 0.00 | 73 | 1020.3 |
| 20260508200521 | 58 | 160 | 6.0 | 12.0 | 0.00 | 0.00 | 0.00 | 74 | 1020.2 |
| 20260508200046 | 57 | 141 | 6.0 | 13.0 | 0.00 | 0.00 | 0.00 | 74 | 1020.2 |
| 20260508195523 | 57 | 185 | 6.0 | 14.0 | 0.00 | 0.00 | 0.00 | 74 | 1020.1 |
| 20260508195023 | 57 | 161 | 6.0 | 14.0 | 0.00 | 0.00 | 0.00 | 75 | 1020.0 |
| 20260508194542 | 57 | 148 | 8.0 | 14.0 | 0.00 | 0.00 | 0.00 | 74 | 1019.9 |
| 20260508194022 | 57 | 135 | 6.0 | 14.0 | 0.00 | 0.00 | 0.00 | 76 | 1019.9 |
| 20260508193522 | 57 | 233 | 6.0 | 11.0 | 0.00 | 0.00 | 0.00 | 75 | 1020.0 |
| 20260508193043 | 57 | 218 | 4.0 | 12.0 | 0.00 | 0.00 | 0.00 | 74 | 1020.0 |
| 20260508192522 | 57 | 126 | 6.0 | 12.0 | 0.00 | 0.00 | 0.00 | 74 | 1019.9 |
| 20260508192024 | 57 | 195 | 6.0 | 12.0 | 0.00 | 0.00 | 0.00 | 75 | 1019.8 |
| 20260508191542 | 57 | 240 | 5.0 | 13.0 | 0.00 | 0.00 | 0.00 | 75 | 1019.7 |
| 20260508191022 | 57 | 140 | 6.0 | 13.0 | 0.00 | 0.00 | 0.00 | 74 | 1019.7 |
| 20260508190522 | 57 | 150 | 6.0 | 12.0 | 0.00 | 0.00 | 0.00 | 75 | 1019.7 |
| 20260508190038 | 57 | 250 | 5.0 | 11.0 | 0.00 | 0.00 | 0.00 | 75 | 1019.6 |
| 20260508185522 | 57 | 125 | 4.0 | 9.0 | 0.00 | 0.00 | 0.00 | 77 | 1019.7 |
| 20260508185021 | 57 | 152 | 4.0 | 9.0 | 0.00 | 0.00 | 0.00 | 78 | 1019.6 |
| 20260508184537 | 56 | 195 | 4.0 | 10.0 | 0.00 | 0.00 | 0.00 | 77 | 1019.6 |
| 20260508184021 | 56 | 181 | 4.0 | 10.0 | 0.00 | 0.00 | 0.00 | 78 | 1019.7 |
| 20260508183521 | 56 | 160 | 5.0 | 9.0 | 0.00 | 0.00 | 0.00 | 78 | 1019.6 |
| 20260508183039 | 56 | 155 | 5.0 | 9.0 | 0.00 | 0.00 | 0.00 | 77 | 1019.5 |
| 20260508182523 | 56 | 244 | 4.0 | 10.0 | 0.00 | 0.00 | 0.00 | 77 | 1019.4 |
| 20260508182022 | 56 | 160 | 5.0 | 10.0 | 0.00 | 0.00 | 0.00 | 77 | 1019.3 |
| 20260508181555 | 56 | 155 | 4.0 | 9.0 | 0.00 | 0.00 | 0.00 | 77 | 1019.2 |
| 20260508181022 | 56 | 182 | 3.0 | 9.0 | 0.00 | 0.00 | 0.00 | 78 | 1019.2 |
| 20260508180522 | 56 | 154 | 4.0 | 10.0 | 0.00 | 0.00 | 0.00 | 78 | 1019.1 |
| 20260508180041 | 56 | 167 | 3.0 | 10.0 | 0.00 | 0.00 | 0.00 | 78 | 1019.0 |
| 20260508175522 | 56 | 201 | 4.0 | 12.0 | 0.00 | 0.00 | 0.00 | 79 | 1018.9 |
| 20260508175022 | 56 | 188 | 4.0 | 12.0 | 0.00 | 0.00 | 0.00 | 78 | 1019.0 |
| 20260508174550 | 56 | 210 | 5.0 | 12.0 | 0.00 | 0.00 | 0.00 | 77 | 1019.0 |
| 20260508174021 | 57 | 160 | 6.0 | 10.0 | 0.00 | 0.00 | 0.00 | 77 | 1018.9 |
| 20260508173522 | 57 | 186 | 4.0 | 10.0 | 0.00 | 0.00 | 0.00 | 78 | 1018.8 |
| 20260508173042 | 57 | 124 | 4.0 | 10.0 | 0.00 | 0.00 | 0.00 | 77 | 1018.8 |
| 20260508172521 | 57 | 203 | 4.0 | 9.0 | 0.00 | 0.00 | 0.00 | 78 | 1018.7 |
| 20260508172022 | 57 | 221 | 4.0 | 8.0 | 0.00 | 0.00 | 0.00 | 79 | 1018.6 |
| 20260508171545 | 57 | 99 | 5.0 | 8.0 | 0.00 | 0.00 | 0.00 | 79 | 1018.5 |
| 20260508171023 | 57 | 122 | 4.0 | 10.0 | 0.00 | 0.00 | 0.00 | 79 | 1018.3 |
| 20260508170525 | 57 | 140 | 4.0 | 10.0 | 0.00 | 0.00 | 0.00 | 77 | 1018.4 |
| 20260508170042 | 57 | 132 | 4.0 | 10.0 | 0.00 | 0.00 | 0.00 | 78 | 1018.3 |
| 20260508165523 | 57 | 175 | 5.0 | 10.0 | 0.00 | 0.00 | 0.00 | 77 | 1018.2 |
| 20260508165022 | 57 | 158 | 5.0 | 10.0 | 0.00 | 0.00 | 0.00 | 79 | 1018.1 |
| 20260508164541 | 57 | 219 | 5.0 | 10.0 | 0.00 | 0.00 | 0.00 | 80 | 1018.0 |
| 20260508164022 | 57 | 173 | 5.0 | 10.0 | 0.00 | 0.00 | 0.00 | 80 | 1018.0 |
| 20260508163521 | 57 | 200 | 4.0 | 13.0 | 0.00 | 0.00 | 0.00 | 82 | 1018.0 |
| 20260508163040 | 57 | 200 | 5.0 | 13.0 | 0.00 | 0.00 | 0.00 | 81 | 1018.0 |
| 20260508162522 | 56 | 163 | 5.0 | 13.0 | 0.00 | 0.00 | 0.00 | 82 | 1017.9 |
| 20260508162022 | 56 | 150 | 4.0 | 13.0 | 0.00 | 0.00 | 0.00 | 84 | 1017.9 |
| 20260508161538 | 56 | 174 | 6.0 | 13.0 | 0.00 | 0.00 | 0.00 | 85 | 1017.8 |
| 20260508161023 | 55 | 226 | 7.0 | 11.0 | 0.00 | 0.00 | 0.00 | 85 | 1017.8 |
| 20260508160521 | 55 | 146 | 8.0 | 11.0 | 0.00 | 0.00 | 0.00 | 85 | 1017.6 |
| 20260508160037 | 55 | 146 | 7.0 | 10.0 | 0.00 | 0.00 | 0.00 | 84 | 1017.6 |
| 20260508155521 | 55 | 125 | 6.0 | 10.0 | 0.00 | 0.00 | 0.00 | 85 | 1017.6 |
| 20260508155023 | 55 | 138 | 6.0 | 11.0 | 0.00 | 0.00 | 0.00 | 85 | 1017.6 |
| 20260508154537 | 55 | 127 | 6.0 | 11.0 | 0.00 | 0.00 | 0.00 | 85 | 1017.6 |
| 20260508154022 | 55 | 124 | 6.0 | 11.0 | 0.00 | 0.00 | 0.00 | 85 | 1017.5 |
| 20260508153522 | 55 | 175 | 7.0 | 11.0 | 0.00 | 0.00 | 0.00 | 85 | 1017.3 |
| 20260508153042 | 55 | 104 | 5.0 | 12.0 | 0.00 | 0.00 | 0.00 | 86 | 1017.5 |
| 20260508152525 | 55 | 96 | 5.0 | 12.0 | 0.00 | 0.00 | 0.00 | 85 | 1017.5 |
| 20260508152022 | 54 | 105 | 6.0 | 11.0 | 0.00 | 0.00 | 0.00 | 86 | 1017.4 |
| 20260508151544 | 54 | 126 | 7.0 | 10.0 | 0.00 | 0.00 | 0.00 | 86 | 1017.3 |
| 20260508151023 | 54 | 113 | 5.0 | 7.0 | 0.00 | 0.00 | 0.00 | 87 | 1017.6 |
| 20260508150525 | 54 | 120 | 1.0 | 7.0 | 0.00 | 0.00 | 0.00 | 88 | 1017.6 |
| 20260508150043 | 53 | 134 | 3.0 | 7.0 | 0.00 | 0.00 | 0.00 | 89 | 1017.6 |
| 20260508145522 | 53 | 122 | 3.0 | 6.0 | 0.00 | 0.00 | 0.00 | 88 | 1017.5 |
| 20260508145025 | 53 | 111 | 3.0 | 7.0 | 0.00 | 0.00 | 0.00 | 88 | 1017.4 |
| 20260508144539 | 53 | 139 | 4.0 | 7.0 | 0.00 | 0.00 | 0.00 | 88 | 1017.3 |
| 20260508144021 | 53 | 105 | 3.0 | 7.0 | 0.00 | 0.00 | 0.00 | 88 | 1017.3 |
| 20260508143524 | 53 | 128 | 3.0 | 5.0 | 0.00 | 0.00 | 0.00 | 88 | 1017.1 |
| 20260508143045 | 53 | 114 | 3.0 | 5.0 | 0.00 | 0.00 | 0.00 | 89 | 1017.0 |
| 20260508142522 | 53 | 120 | 3.0 | 5.0 | 0.00 | 0.00 | 0.00 | 89 | 1017.0 |
| 20260508142022 | 53 | 92 | 2.0 | 3.0 | 0.00 | 0.00 | 0.00 | 89 | 1017.0 |
| 20260508141609 | 53 | 86 | 2.0 | 4.0 | 0.00 | 0.00 | 0.00 | 89 | 1016.9 |
| 20260508141022 | 53 | 75 | 1.0 | 4.0 | 0.00 | 0.00 | 0.00 | 89 | 1016.9 |
| 20260508140522 | 53 | 76 | 2.0 | 5.0 | 0.00 | 0.00 | 0.00 | 89 | 1016.8 |
| 20260508140041 | 53 | 78 | 3.0 | 5.0 | 0.00 | 0.00 | 0.00 | 89 | 1016.8 |
| 20260508135523 | 53 | 120 | 3.0 | 4.0 | 0.00 | 0.00 | 0.00 | 89 | 1016.7 |
| 20260508135023 | 52 | 99 | 1.0 | 4.0 | 0.00 | 0.00 | 0.00 | 90 | 1016.7 |
| 20260508134552 | 52 | 89 | 2.0 | 4.0 | 0.00 | 0.00 | 0.00 | 90 | 1016.7 |
| 20260508134022 | 52 | 83 | 2.0 | 5.0 | 0.00 | 0.00 | 0.00 | 91 | 1016.7 |
| 20260508133524 | 52 | 92 | 3.0 | 5.0 | 0.00 | 0.00 | 0.00 | 91 | 1016.7 |
| 20260508133044 | 52 | 130 | 1.0 | 4.0 | 0.00 | 0.00 | 0.00 | 91 | 1016.7 |
| 20260508132522 | 52 | 134 | 1.0 | 4.0 | 0.00 | 0.00 | 0.00 | 91 | 1016.7 |
| 20260508132024 | 52 | 133 | 1.0 | 4.0 | 0.00 | 0.00 | 0.00 | 91 | 1016.7 |
| 20260508131547 | 52 | 115 | 1.0 | 3.0 | 0.00 | 0.00 | 0.00 | 91 | 1016.7 |
| 20260508131023 | 52 | 155 | 1.0 | 3.0 | 0.00 | 0.00 | 0.00 | 91 | 1016.7 |
| 20260508130522 | 52 | 170 | 1.0 | 3.0 | 0.00 | 0.00 | 0.00 | 90 | 1016.7 |
| 20260508130043 | 52 | 179 | 1.0 | 3.0 | 0.00 | 0.00 | 0.00 | 90 | 1016.7 |
| 20260508125522 | 52 | 0 | 0.0 | 2.0 | 0.00 | 0.00 | 0.00 | 90 | 1016.6 |
| 20260508125023 | 52 | 146 | 1.0 | 2.0 | 0.00 | 0.00 | 0.00 | 91 | 1016.5 |
| 20260508124545 | 52 | 115 | 1.0 | 2.0 | 0.00 | 0.00 | 0.00 | 91 | 1016.5 |
| 20260508124024 | 52 | 100 | 0.0 | 2.0 | 0.00 | 0.00 | 0.00 | 91 | 1016.5 |
| 20260508123523 | 52 | 89 | 1.0 | 2.0 | 0.00 | 0.00 | 0.00 | 90 | 1016.6 |
| 20260508123046 | 52 | 83 | 1.0 | 2.0 | 0.00 | 0.00 | 0.00 | 91 | 1016.5 |
| 20260508122539 | 52 | 86 | 1.0 | 2.0 | 0.00 | 0.00 | 0.00 | 90 | 1016.5 |
| 20260508122022 | 52 | 83 | 1.0 | 2.0 | 0.00 | 0.00 | 0.00 | 91 | 1016.6 |
| 20260508121546 | 52 | 91 | 1.0 | 2.0 | 0.00 | 0.00 | 0.00 | 91 | 1016.5 |
| 20260508121022 | 52 | 107 | 1.0 | 2.0 | 0.00 | 0.00 | 0.00 | 91 | 1016.6 |
| 20260508120522 | 52 | 128 | 0.0 | 2.0 | 0.00 | 0.00 | 0.00 | 91 | 1016.5 |
| 20260508120047 | 52 | 89 | 1.0 | 2.0 | 0.00 | 0.00 | 0.00 | 91 | 1016.4 |
| 20260508115522 | 52 | 86 | 0.0 | 2.0 | 0.00 | 0.00 | 0.00 | 91 | 1016.5 |
| 20260508115023 | 52 | 0 | 0.0 | 0.0 | 0.00 | 0.00 | 0.00 | 91 | 1016.6 |
| 20260508114542 | 52 | 0 | 0.0 | 0.0 | 0.00 | 0.00 | 0.00 | 91 | 1016.4 |
| 20260508114022 | 52 | 0 | 0.0 | 0.0 | 0.00 | 0.00 | 0.00 | 91 | 1016.2 |
| 20260508113522 | 52 | 0 | 0.0 | 0.0 | 0.00 | 0.00 | 0.00 | 91 | 1016.2 |
| 20260508113050 | 52 | 0 | 0.0 | 0.0 | 0.00 | 0.00 | 0.00 | 91 | 1016.2 |
| 20260508112522 | 52 | 0 | 0.0 | 0.0 | 0.00 | 0.00 | 0.00 | 91 | 1016.3 |
| 20260508112022 | 52 | 0 | 0.0 | 0.0 | 0.00 | 0.00 | 0.00 | 91 | 1016.2 |
| 20260508111551 | 51 | 0 | 0.0 | 0.0 | 0.00 | 0.00 | 0.00 | 91 | 1016.2 |
| 20260508111025 | 51 | 0 | 0.0 | 0.0 | 0.00 | 0.00 | 0.00 | 91 | 1016.1 |
| 20260508110521 | 51 | 0 | 0.0 | 0.0 | 0.00 | 0.00 | 0.00 | 91 | 1016.2 |
| 20260508110040 | 51 | 0 | 0.0 | 1.0 | 0.00 | 0.00 | 0.00 | 91 | 1016.3 |
| 20260508105522 | 51 | 0 | 0.0 | 1.0 | 0.00 | 0.00 | 0.00 | 91 | 1016.1 |
| 20260508105022 | 51 | 49 | 0.0 | 1.0 | 0.00 | 0.00 | 0.00 | 91 | 1016.1 |
| 20260508104546 | 51 | 49 | 0.0 | 1.0 | 0.00 | 0.00 | 0.00 | 91 | 1016.1 |
| 20260508104024 | 51 | 39 | 1.0 | 1.0 | 0.00 | 0.00 | 0.00 | 91 | 1016.1 |
| 20260508103521 | 52 | 39 | 0.0 | 1.0 | 0.00 | 0.00 | 0.00 | 90 | 1016.2 |
| 20260508103041 | 52 | 39 | 1.0 | 1.0 | 0.00 | 0.00 | 0.00 | 90 | 1016.1 |
| 20260508102523 | 52 | 39 | 0.0 | 1.0 | 0.00 | 0.00 | 0.00 | 90 | 1016.2 |
| 20260508102021 | 52 | 30 | 0.0 | 1.0 | 0.00 | 0.00 | 0.00 | 90 | 1016.2 |
| 20260508101542 | 52 | 30 | 1.0 | 1.0 | 0.00 | 0.00 | 0.00 | 90 | 1016.2 |
| 20260508101024 | 52 | 30 | 1.0 | 2.0 | 0.00 | 0.00 | 0.00 | 90 | 1016.1 |
| 20260508100521 | 52 | 6 | 1.0 | 2.0 | 0.00 | 0.00 | 0.00 | 90 | 1016.1 |
| 20260508100037 | 52 | 18 | 0.0 | 1.0 | 0.00 | 0.00 | 0.00 | 90 | 1016.1 |
| 20260508095525 | 52 | 0 | 0.0 | 0.0 | 0.00 | 0.00 | 0.00 | 89 | 1016.1 |
| 20260508095022 | 52 | 0 | 0.0 | 2.0 | 0.00 | 0.00 | 0.00 | 89 | 1016.1 |
| 20260508094537 | 52 | 0 | 0.0 | 2.0 | 0.00 | 0.00 | 0.00 | 89 | 1015.9 |
| 20260508094024 | 52 | 50 | 1.0 | 2.0 | 0.00 | 0.00 | 0.00 | 89 | 1016.0 |
| 20260508093521 | 52 | 49 | 1.0 | 1.0 | 0.00 | 0.00 | 0.00 | 89 | 1016.0 |
| 20260508093044 | 52 | 49 | 1.0 | 1.0 | 0.00 | 0.00 | 0.00 | 88 | 1015.9 |
| 20260508092521 | 52 | 49 | 0.0 | 2.0 | 0.00 | 0.00 | 0.00 | 88 | 1015.9 |
| 20260508092021 | 52 | 359 | 1.0 | 2.0 | 0.00 | 0.00 | 0.00 | 88 | 1016.0 |
| 20260508091551 | 53 | 20 | 0.0 | 1.0 | 0.00 | 0.00 | 0.00 | 88 | 1016.0 |
| 20260508091024 | 53 | 53 | 1.0 | 2.0 | 0.00 | 0.00 | 0.00 | 88 | 1015.9 |
| 20260508090524 | 53 | 54 | 1.0 | 2.0 | 0.00 | 0.00 | 0.00 | 87 | 1015.8 |
| 20260508090043 | 53 | 54 | 1.0 | 2.0 | 0.00 | 0.00 | 0.00 | 87 | 1015.9 |
| 20260508085520 | 53 | 53 | 1.0 | 2.0 | 0.00 | 0.00 | 0.00 | 87 | 1015.9 |
| 20260508085022 | 53 | 0 | 0.0 | 2.0 | 0.00 | 0.00 | 0.00 | 87 | 1016.0 |
| 20260508084541 | 53 | 77 | 0.0 | 2.0 | 0.00 | 0.00 | 0.00 | 87 | 1016.1 |
| 20260508084022 | 54 | 83 | 1.0 | 3.0 | 0.00 | 0.00 | 0.00 | 87 | 1016.0 |
| 20260508083520 | 54 | 86 | 1.0 | 3.0 | 0.00 | 0.00 | 0.00 | 86 | 1016.1 |
| 20260508083048 | 54 | 93 | 1.0 | 3.0 | 0.00 | 0.00 | 0.00 | 86 | 1016.1 |